This demonstration page uses our WeatherBlox Daily Observations layout. Learn more.

Left ArrowRight Arrow

Hourly Observations for April 15, 2018

Temp ( °F °C ) Dew Point ( °F °C ) Humidity (%) Winds ( mph kmh ) Pressure ( in mb ) Visibility ( mi km ) Precip ( " mm )
12:56 am 00:56 Cloudy 23 -5 19 -7.2 85 85 N 18 30 30.18 1022 10 16 0.00 0.00
1:54 am 01:54 Cloudy 23 -5 18 -8 80 80 N 18 30 30.24 1024 10 16 0.00 0.00
1:56 am 01:56 Cloudy 23 -5 18 -7.8 81 81 N 18 30 30.17 1022 10 16 0.00 0.00
2:13 am 02:13 Cloudy 23 -5 18 -8 80 80 N 17 28 30.24 1024 10 16 0.00 0.00
2:56 am 02:56 Cloudy with Light Snow 23 -5 19 -7.2 85 85 N 18 30 30.16 1022 9 14 0.00 0.03
3:56 am 03:56 Mostly Cloudy 22 -5.6 17 -8.3 82 82 N 17 28 30.16 1021 9 14 0.00 0.03
4:05 am 04:05 Partly Cloudy 21 -6 18 -8 86 86 NNW 16 26 30.24 1024 10 16 0.00 0.00
4:56 am 04:56 Clear 19 -7.2 15 -9.4 84 84 NNW 13 20 30.19 1022 10 16 0.00 0.00
5:56 am 05:56 Clear 16 -8.9 13 -10.6 88 88 NW 13 20 30.21 1023 10 16 0.00 0.00
6:56 am 06:56 Clear 16 -8.9 12 -11.1 84 84 NW 13 20 30.23 1024 10 16 0.00 0.00
7:32 am 07:32 Mostly Cloudy 16 -9 12 -11 86 86 NNW 13 20 30.33 1027 10 16 0.00 0.00
7:54 am 07:54 Cloudy 18 -8 12 -11 79 79 NNW 14 22 30.36 1028 10 16 0.00 0.00
7:56 am 07:56 Cloudy 17 -8.3 13 -10.6 84 84 NNW 14 22 30.25 1025 10 16 0.00 0.00
8:22 am 08:22 Partly Cloudy 19 -7 14 -10 79 79 NNW 17 28 30.36 1028 10 16 0.00 0.00
8:44 am 08:44 Mostly Cloudy 19 -7 14 -10 79 79 NNW 16 26 30.36 1028 10 16 0.00 0.00
8:56 am 08:56 Mostly Cloudy 20 -6.7 15 -9.4 81 81 NNW 18 30 30.25 1025 10 16 0.00 0.00
9:15 am 09:15 Mostly Cloudy 21 -6 16 -9 80 80 N 23 37 30.33 1027 10 16 0.00 0.00
9:56 am 09:56 Mostly Sunny 23 -5 17 -8.3 78 78 N 20 31 30.26 1025 10 16 0.00 0.00
11:56 am 11:56 Sunny 29 -1.7 18 -7.8 63 63 N 23 37 30.25 1024 10 16 0.00 0.00
12:56 pm 12:56 Mostly Cloudy 31 -0.6 20 -6.7 64 64 N 21 33 30.25 1025 10 16 0.00 0.00
1:45 pm 13:45 Partly Cloudy 34 1 19 -7 56 56 N 21 33 30.27 1025 10 16 0.00 0.00
1:56 pm 13:56 Mostly Cloudy 33 0.6 20 -6.7 58 58 NNW 18 30 30.24 1024 10 16 0.00 0.00
2:39 pm 14:39 Partly Cloudy 34 1 21 -6 60 60 NNW 20 31 30.27 1025 10 16 0.00 0.00
2:56 pm 14:56 Partly Cloudy 35 1.7 22 -5.6 59 59 N 20 31 30.23 1024 10 16 0.00 0.00
3:56 pm 15:56 Partly Cloudy 34 1.1 22 -5.6 61 61 N 25 41 30.22 1024 10 16 0.00 0.00
4:28 pm 16:28 Mostly Cloudy 34 1 21 -6 60 60 N 18 30 30.24 1024 10 16 0.00 0.00
4:56 pm 16:56 Partly Cloudy 34 1.1 22 -5.6 61 61 NNW 20 31 30.23 1024 10 16 0.00 0.00
5:56 pm 17:56 Mostly Sunny 34 1.1 22 -5.6 61 61 NNW 15 24 30.23 1024 10 16 0.00 0.00
6:56 pm 18:56 Partly Cloudy 33 0.6 22 -5.6 64 64 N 16 26 30.23 1024 10 16 0.00 0.00
7:14 pm 19:14 Mostly Cloudy 34 1 23 -5 65 65 NNW 14 22 30.24 1024 10 16 0.00 0.00
7:44 pm 19:44 Partly Cloudy 30 -1 23 -5 75 75 NNW 14 22 30.27 1025 10 16 0.00 0.00
7:56 pm 19:56 Mostly Sunny 31 -0.6 23 -5 72 72 NNW 13 20 30.25 1024 10 16 0.00 0.00
8:56 pm 20:56 Clear 28 -2.2 23 -5 81 81 N 10 17 30.26 1025 10 16 0.00 0.00
9:56 pm 21:56 Clear 26 -3.3 22 -5.6 84 84 N 12 19 30.27 1025 10 16 0.00 0.00
10:56 pm 22:56 Clear 24 -4.4 21 -6.1 88 88 NNE 13 20 30.27 1025 10 16 0.00 0.00
11:16 pm 23:16 Mostly Cloudy 27 -3 21 -6 80 80 NNE 16 26 30.30 1026 10 16 0.00 0.00
11:56 pm 23:56 Cloudy 27 -2.8 22 -5.6 81 81 N 9 15 30.27 1025 10 16 0.00 0.00

Powered by AerisWeather